RH
100 95 90 85 83 85 85 85 85 81 77 73 73 78 80 79 80 77 74 74 73 74 80 83 78 78 82 85 87 86 79 71 61 50 49 68 93 102 99 99 100 100
99 95 89 81 77 78 80 84 86 83 77 73 74 78 79 81 83 82 80 80 82 85 87 85 82 84 88 90 92 93 89 81 75 68 57 54 72 93 100 100 99 100
98 93 84 77 73 73 78 84 85 83 78 75 76 77 79 83 86 86 84 83 86 90 91 89 86 88 91 90 91 93 93 90 82 81 80 70 66 76 89 98 100 100
86 81 75 70 69 72 77 80 78 79 80 78 76 78 82 88 93 92 85 85 91 92 91 91 88 88 88 88 93 93 92 93 91 91 95 91 81 73 73 83 93 98
77 73 70 67 66 69 73 72 72 75 78 77 75 79 84 89 96 97 88 86 94 96 93 91 88 87 87 86 92 94 93 95 97 100 101 98 96 89 75 70 75 86
78 76 73 70 68 68 67 66 70 74 75 75 75 78 83 88 94 97 90 86 92 95 94 91 88 88 89 88 89 92 95 97 98 103 103 99 100 99 87 74 67 71
75 75 73 72 71 68 66 65 68 70 71 72 72 75 83 87 91 93 90 87 90 94 92 89 87 87 88 90 91 92 94 97 98 101 103 100 100 100 94 84 72 66
72 72 69 69 70 68 66 66 65 65 67 66 66 74 84 87 87 91 92 89 91 93 91 88 87 87 90 92 94 96 96 96 97 98 99 99 100 100 98 91 80 69
71 70 66 65 67 68 67 66 64 64 64 65 69 77 85 88 88 90 92 92 93 93 92 91 88 88 92 94 93 95 96 95 93 92 92 94 97 98 96 93 87 77
72 71 69 66 65 69 71 68 65 64 64 68 76 83 86 88 89 90 92 93 94 95 94 92 87 85 90 92 93 96 94 93 92 89 88 90 92 95 96 94 91 84
75 73 73 69 67 71 73 69 66 64 66 71 80 86 87 87 89 92 91 90 91 94 95 92 86 84 85 86 91 95 93 92 93 90 88 87 87 91 96 97 93 87
79 77 75 71 69 72 72 70 69 67 69 73 77 79 79 81 86 90 87 84 87 92 93 91 87 87 86 83 84 89 92 95 96 93 91 89 87 90 95 98 96 92
84 81 78 74 72 73 71 70 71 69 67 68 68 68 71 77 85 90 88 86 87 89 91 88 84 85 89 88 84 86 92 95 94 95 97 95 93 93 94 96 95 92
89 86 83 78 75 74 73 72 73 71 68 67 69 73 79 85 91 94 95 94 90 88 89 87 82 80 84 86 84 84 89 92 91 95 100 101 100 96 93 94 92 91
94 92 89 85 82 79 79 78 78 77 76 76 79 84 88 91 93 95 95 94 93 90 89 88 85 81 79 80 81 81 84 88 91 95 98 100 102 100 96 94 94 93
100 100 98 95 91 87 86 84 82 82 83 85 88 90 92 93 94 96 94 92 92 92 91 90 88 86 84 82 82 83 85 88 92 96 98 99 102 103 101 99 98 98
101 101 102 102 99 96 94 92 92 93 93 94 95 95 96 97 98 99 99 97 95 92 92 92 91 91 91 89 86 85 86 89 93 96 98 99 102 102 100 98 98 96
100 100 101 101 101 102 101 99 101 102 102 101 101 101 101 100 100 99 99 98 97 95 94 94 95 96 97 95 92 90 90 90 92 95 98 100 102 101 97 91 88 86
100 100 100 100 100 101 101 101 102 103 104 103 102 103 103 101 100 100 100 100 98 98 97 96 98 99 99 99 99 97 94 92 93 96 99 101 101 100 96 88 80 75
100 100 100 100 100 100 100 101 101 101 102 101 101 102 101 100 100 99 100 102 101 100 99 98 100 101 100 102 102 99 96 96 97 99 99 98 96 94 91 86 79 73
100 100 100 100 100 100 100 100 100 100 100 100 101 100 100 100 99 98 96 96 97 98 97 97 99 101 101 101 99 98 98 99 100 100 98 95 90 88 86 84 81 76
100 99 100 101 99 100 100 100 101 101 100 101 101 100 100 100 99 99 98 97 96 96 97 98 99 99 100 100 98 98 99 100 99 98 96 91 85 82 82 83 83 82
101 100 100 100 100 100 100 100 101 100 99 100 101 100 99 99 98 100 100 100 101 99 98 99 99 98 97 98 98 99 98 97 95 94 93 90 87 84 83 82 81 80
100 100 100 100 100 100 99 99 98 96 95 98 100 100 99 96 97 99 98 96 96 96 94 95 97 96 94 94 97 98 97 96 95 93 90 88 86 85 84 83 82 80
100 100 100 100 100 100 99 99 99 98 98 99 99 99 98 95 94 97 98 94 90 90 92 94 97 99 98 98 97 96 97 97 95 91 85 80 78 75 72 69 68 68
100 101 100 100 101 101 100 99 97 94 93 93 93 94 96 96 96 98 99 97 95 95 96 96 96 97 100 99 94 92 92 90 88 88 89 88 87 84 77 70 64 61
Wind_Speed
41 43 44 45 44 41 39 39 40 42 43 42 40 39 38 38 37 36 36 36 37 38 37 36 37 38 39 39 40 42 44 44 45 49 55 60 61 61 60 59 58 57
43 45 47 46 44 41 39 38 42 45 46 43 40 37 36 36 36 35 35 35 36 37 36 35 35 37 38 38 38 40 41 41 41 41 45 52 59 61 61 60 58 56
44 47 48 46 44 42 38 39 44 47 46 43 40 37 34 34 35 35 34 35 36 37 35 34 35 36 36 36 36 37 39 40 39 37 38 42 49 57 61 60 58 55
47 48 48 46 43 40 38 41 45 45 44 43 40 37 34 33 34 35 35 35 36 36 35 34 34 34 35 35 34 36 38 39 38 37 36 37 40 47 56 60 60 55
49 49 49 47 44 41 42 44 44 42 42 41 39 37 35 33 34 35 35 35 35 35 34 34 34 33 33 34 34 35 38 40 39 36 35 35 35 38 45 54 60 59
51 51 50 48 46 46 46 44 41 41 41 40 38 37 34 33 34 34 35 36 36 35 34 34 34 33 33 33 34 35 37 39 39 38 36 34 34 35 37 44 54 60
47 48 49 48 46 45 42 40 39 40 40 39 38 36 33 33 34 33 34 36 36 35 34 34 34 34 33 33 34 34 36 38 39 40 39 36 35 36 35 37 46 55
42 44 45 45 44 42 39 38 39 40 40 39 37 34 32 33 33 32 33 35 36 36 35 34 34 34 33 32 33 34 35 37 39 40 41 39 38 38 37 36 40 48
38 39 40 41 40 38 36 35 37 38 37 36 34 32 32 32 31 31 32 35 37 37 35 34 34 33 32 31 31 32 34 37 39 40 41 40 39 39 39 38 38 43
36 36 36 36 35 32 31 32 35 36 34 31 31 31 31 31 31 31 32 35 38 38 37 36 35 34 33 32 30 30 33 36 38 40 41 41 40 39 39 39 38 40
33 32 32 33 31 29 29 31 32 32 30 29 29 30 31 31 31 31 33 36 38 39 39 38 36 35 34 34 32 30 30 33 36 38 40 41 41 39 38 38 38 38
30 29 29 30 29 28 28 29 29 29 29 29 30 30 31 30 30 31 33 35 37 40 41 40 38 36 35 35 33 30 29 30 32 35 37 39 41 41 39 38 38 38
27 25 25 26 26 26 26 26 27 28 28 29 29 28 28 28 28 30 31 33 36 39 41 42 40 37 37 36 34 32 30 30 31 32 34 36 39 41 41 40 39 39
22 20 21 21 22 22 22 22 23 25 25 26 26 26 26 26 27 28 29 31 34 37 40 43 42 39 38 38 37 34 32 31 31 30 31 33 36 39 40 40 39 38
18 16 15 16 17 17 17 17 18 19 21 22 23 24 25 25 26 26 27 29 31 34 38 40 41 39 38 39 39 37 35 33 30 28 28 30 33 36 38 38 37 35
13 12 11 10 11 12 12 13 13 14 16 17 19 21 21 22 22 22 24 26 27 30 34 37 38 36 35 36 38 38 37 35 31 28 28 28 30 33 36 37 35 34
10 8 7 5 5 6 6 7 8 9 10 12 14 15 15 14 15 16 19 21 22 25 28 31 34 35 35 36 36 37 36 35 34 31 28 27 28 30 31 33 33 33
9 7 5 3 2 2 3 3 4 4 5 7 8 9 9 10 10 12 14 16 18 19 22 25 28 31 34 36 35 35 35 35 33 30 27 26 27 28 27 28 29 30
11 9 8 7 6 5 5 4 3 3 2 2 2 1 2 3 3 4 5 7 9 11 13 14 16 18 22 25 26 27 29 29 27 25 24 24 25 25 25 25 26 27
11 10 9 8 8 7 7 7 7 7 7 6 6 7 8 7 7 6 5 4 4 4 5 5 6 7 10 13 16 18 21 21 21 21 21 22 22 23 23 24 25 26
11 11 10 10 10 10 11 11 10 10 11 10 11 11 10 8 6 6 6 5 5 5 5 4 5 6 8 10 12 15 17 19 20 21 21 22 23 23 23 24 24 25
13 13 13 13 13 13 12 12 12 11 10 10 9 8 6 4 3 2 2 1 1 0 2 3 5 6 8 10 12 14 17 19 21 22 22 23 24 23 23 23 24 25
14 14 14 15 15 14 13 11 10 9 8 7 6 4 2 1 2 3 3 4 5 6 7 8 9 9 10 12 14 16 18 20 21 23 24 25 25 25 25 25 25 26
14 14 14 14 13 12 10 8 7 6 6 5 4 1 1 2 2 3 5 7 8 9 10 10 11 11 11 12 13 15 17 18 19 21 22 24 25 26 27 27 28 28
14 14 14 14 13 12 11 10 9 8 7 6 5 3 3 3 2 2 4 5 7 8 9 9 9 10 11 12 12 13 14 14 15 17 19 20 22 24 26 27 28 28
13 14 14 15 15 14 13 12 10 9 8 8 8 7 7 6 4 3 2 4 5 7 9 10 11 12 13 15 15 15 15 15 15 16 18 19 21 23 25 26 27 27
Wind_Direction
279 278 276 275 274 273 273 273 274 274 274 275 276 275 273 271 270 268 265 261 256 254 251 246 242 241 240 238 236 236 238 240 241 239 236 233 231 231 231 230 231 232
277 277 276 275 273 271 269 270 273 276 276 276 277 275 273 272 269 266 263 259 253 249 246 242 239 238 239 240 239 238 238 240 241 240 239 236 233 232 231 230 230 231
272 272 273 272 271 269 267 269 274 276 276 276 277 275 272 271 269 265 261 257 250 245 242 239 237 237 237 239 241 241 239 239 240 239 239 238 236 235 234 233 231 231
273 273 274 273 271 268 268 272 275 274 273 274 275 274 270 269 269 264 259 254 248 244 240 236 236 237 237 238 240 241 238 236 236 238 239 238 237 236 236 236 235 234
279 279 279 277 274 271 271 273 273 270 268 270 271 269 267 267 267 263 257 250 244 241 238 234 235 237 238 238 240 239 236 233 233 235 237 237 238 238 236 236 237 238
281 280 280 279 277 274 272 271 268 265 265 267 266 264 264 266 266 261 255 248 241 238 235 233 235 237 239 240 241 240 237 233 232 233 234 235 237 238 237 235 236 238
280 280 280 280 278 274 272 268 263 261 261 262 262 260 262 265 264 260 254 247 240 236 235 234 235 237 240 242 242 241 239 236 234 233 234 236 237 238 241 239 235 236
279 276 276 277 275 273 269 264 259 258 259 262 262 260 259 262 263 259 252 245 240 236 234 235 236 236 238 241 241 240 240 238 236 236 237 238 240 242 244 244 240 236
279 275 274 272 271 271 267 261 256 255 257 261 262 259 258 260 261 257 249 243 239 235 232 234 234 232 234 237 239 241 240 239 238 238 239 240 241 243 244 246 245 239
281 278 275 271 268 267 264 258 254 253 254 256 257 257 257 258 259 255 247 241 237 233 231 232 231 230 231 233 236 241 241 239 239 240 240 240 240 242 244 245 246 242
283 279 275 272 266 261 258 256 253 251 250 248 248 251 254 256 256 253 247 241 236 232 230 231 231 231 232 232 234 239 240 239 240 241 241 242 241 240 241 242 242 241
284 279 274 272 267 259 255 254 252 248 244 241 243 247 251 255 257 254 250 246 239 234 231 231 231 231 233 235 236 238 240 240 241 242 242 242 241 239 239 239 239 237
287 280 274 271 267 260 254 251 250 246 242 243 246 252 256 259 261 260 256 250 243 238 234 233 233 231 232 235 237 238 240 243 246 246 244 242 240 239 238 238 237 235
291 283 277 271 267 261 255 251 249 247 248 249 252 258 261 263 264 262 257 252 247 242 238 237 237 235 232 235 238 238 240 245 250 249 246 244 241 239 238 239 239 237
300 291 282 273 267 261 252 246 243 245 249 250 252 256 259 262 262 258 254 251 249 247 243 241 242 240 237 236 238 239 242 245 247 248 249 247 243 240 238 239 241 240
313 302 290 279 268 257 246 238 234 236 240 245 252 257 261 264 262 258 256 253 251 249 246 244 245 245 242 240 240 240 241 241 243 249 254 251 245 241 238 238 240 240
333 325 314 300 274 251 233 223 220 226 236 246 257 263 266 267 262 258 256 254 252 250 247 245 245 246 245 243 241 239 239 240 243 250 253 250 246 243 238 237 238 239
5 10 16 32 69 140 156 170 190 207 228 245 259 269 274 274 269 265 260 255 253 249 246 246 245 245 246 246 244 240 238 240 243 246 246 245 245 243 240 238 238 238
31 39 49 64 78 93 105 113 126 136 154 215 247 271 308 317 308 288 266 254 249 243 240 240 239 239 240 240 238 234 232 235 237 237 238 239 241 240 240 241 240 239
38 46 53 62 71 80 88 94 96 95 95 100 103 99 88 76 73 76 86 107 131 151 164 168 182 202 210 210 211 212 216 224 230 232 235 238 239 238 237 239 240 241
44 53 60 65 71 80 86 89 90 90 95 103 106 100 88 76 72 71 74 87 99 107 117 133 163 187 198 201 202 206 213 222 229 234 237 239 241 240 236 236 238 240
55 64 70 72 76 80 80 81 84 87 92 100 104 99 85 73 71 67 71 86 40 272 228 238 235 220 215 216 218 220 224 229 232 235 239 242 245 244 241 240 240 241
66 71 73 72 74 74 73 77 85 92 98 101 104 108 112 157 205 223 222 222 240 248 242 241 244 241 236 234 234 233 234 237 238 240 242 245 247 248 248 247 247 246
68 70 70 72 76 78 82 87 88 88 92 94 93 89 283 272 254 248 243 238 238 243 247 246 245 246 247 245 243 242 242 243 244 245 246 247 248 250 250 250 250 249
71 72 71 72 72 71 71 70 68 64 58 54 50 28 347 320 299 264 247 249 249 248 249 247 241 237 237 236 236 237 239 241 245 251 255 256 256 255 253 251 249 248
72 73 71 68 65 62 61 63 66 62 48 40 38 31 23 10 349 316 251 244 257 254 247 246 248 245 240 235 232 232 232 233 239 251 261 268 270 266 259 254 250 247